| time (UTC) | temp F | wind direction | speed MPH | gust MPH | rain 1hr in | rain 24hr in | rain mn in | humidity % | barometer mb |
| 20260507113024 | 43 | 190 | 0.0 | 0.0 | 0.00 | 0.00 | 0.00 | 79 | 1014.4 |
| 20260507111534 | 42 | 190 | 0.0 | 0.0 | 0.00 | 0.00 | 0.00 | 82 | 1014.2 |
| 20260507110018 | 41 | 190 | 0.0 | 0.0 | 0.00 | 0.00 | 0.00 | 84 | 1014.0 |
| 20260507104520 | 41 | 190 | 0.0 | 0.0 | 0.00 | 0.00 | 0.00 | 85 | 1014.0 |
| 20260507103015 | 41 | 190 | 0.0 | 0.0 | 0.00 | 0.00 | 0.00 | 85 | 1013.9 |
| 20260507101515 | 42 | 190 | 0.0 | 0.0 | 0.00 | 0.00 | 0.00 | 86 | 1013.9 |
| 20260507100016 | 42 | 190 | 0.0 | 0.0 | 0.00 | 0.00 | 0.00 | 84 | 1013.8 |
| 20260507094511 | 42 | 190 | 0.0 | 0.0 | 0.00 | 0.00 | 0.00 | 85 | 1013.8 |
| 20260507093014 | 42 | 190 | 0.0 | 0.0 | 0.00 | 0.00 | 0.00 | 86 | 1013.7 |
| 20260507091510 | 42 | 190 | 0.0 | 0.0 | 0.00 | 0.00 | 0.00 | 87 | 1013.6 |
| 20260507090039 | 42 | 190 | 0.0 | 0.0 | 0.00 | 0.00 | 0.00 | 87 | 1013.6 |
| 20260507084544 | 42 | 190 | 0.0 | 0.0 | 0.00 | 0.02 | 0.00 | 88 | 1013.5 |
| 20260507083037 | 42 | 190 | 0.0 | 0.0 | 0.00 | 0.02 | 0.00 | 88 | 1013.4 |
| 20260507081532 | 43 | 190 | 0.0 | 0.0 | 0.00 | 0.02 | 0.00 | 85 | 1013.3 |
| 20260507080032 | 44 | 190 | 0.0 | 0.0 | 0.00 | 0.02 | 0.00 | 84 | 1013.4 |
| 20260507074530 | 44 | 190 | 0.0 | 0.0 | 0.00 | 0.10 | 0.00 | 83 | 1013.3 |
| 20260507073103 | 45 | 190 | 0.0 | 0.0 | 0.00 | 0.10 | 0.00 | 83 | 1013.4 |
| 20260507071601 | 45 | 190 | 0.0 | 0.0 | 0.00 | 0.10 | 0.00 | 83 | 1013.3 |
| 20260507064556 | 45 | 190 | 0.0 | 0.0 | 0.00 | 0.17 | 0.00 | 82 | 1013.4 |
| 20260507063055 | 46 | 190 | 0.0 | 0.0 | 0.00 | 0.17 | 0.00 | 82 | 1013.6 |
| 20260507061555 | 46 | 190 | 0.0 | 0.0 | 0.00 | 0.17 | 0.00 | 82 | 1013.5 |
| 20260507060058 | 46 | 190 | 0.0 | 0.0 | 0.00 | 0.17 | 0.00 | 82 | 1013.4 |
| 20260507054523 | 46 | 190 | 0.0 | 0.0 | 0.00 | 0.31 | 0.00 | 81 | 1013.5 |
| 20260507053023 | 46 | 190 | 0.0 | 0.0 | 0.00 | 0.31 | 0.00 | 81 | 1013.7 |
| 20260507051554 | 46 | 190 | 0.0 | 0.0 | 0.00 | 0.31 | 0.00 | 81 | 1013.5 |
| 20260507050053 | 45 | 190 | 0.0 | 0.0 | 0.00 | 0.31 | 0.00 | 83 | 1013.6 |
| 20260507044558 | 44 | 190 | 0.0 | 0.0 | 0.00 | 0.37 | 0.00 | 85 | 1013.7 |
| 20260507043047 | 45 | 190 | 0.0 | 0.0 | 0.00 | 0.37 | 0.00 | 83 | 1013.7 |
| 20260507041548 | 45 | 190 | 0.0 | 0.0 | 0.00 | 0.37 | 0.00 | 81 | 1013.6 |
| 20260507040043 | 46 | 190 | 0.0 | 0.0 | 0.00 | 0.37 | 0.00 | 81 | 1013.6 |
| 20260507034544 | 46 | 190 | 0.0 | 0.0 | 0.00 | 0.38 | 0.00 | 82 | 1013.6 |
| 20260507033039 | 46 | 190 | 0.0 | 0.0 | 0.00 | 0.38 | 0.00 | 78 | 1013.6 |
| 20260507031539 | 46 | 190 | 0.0 | 0.0 | 0.00 | 0.38 | 0.00 | 78 | 1013.6 |
| 20260507030035 | 48 | 190 | 0.0 | 0.0 | 0.00 | 0.38 | 0.00 | 78 | 1013.7 |
| 20260507024535 | 48 | 190 | 0.0 | 0.0 | 0.00 | 0.41 | 0.00 | 81 | 1013.7 |
| 20260507023031 | 49 | 190 | 0.0 | 0.0 | 0.00 | 0.41 | 0.00 | 78 | 1013.6 |
| 20260507021531 | 48 | 190 | 0.0 | 0.0 | 0.00 | 0.41 | 0.00 | 78 | 1013.6 |
| 20260507020035 | 49 | 190 | 0.0 | 0.0 | 0.00 | 0.41 | 0.00 | 76 | 1013.5 |
| 20260507014520 | 50 | 190 | 0.0 | 0.0 | 0.00 | 0.50 | 0.00 | 73 | 1013.5 |
| 20260507013015 | 51 | 190 | 0.0 | 0.0 | 0.00 | 0.50 | 0.00 | 68 | 1013.2 |
| 20260507011511 | 52 | 190 | 0.0 | 0.0 | 0.00 | 0.50 | 0.00 | 66 | 1012.9 |
| 20260507010008 | 53 | 190 | 0.0 | 0.0 | 0.00 | 0.50 | 0.00 | 61 | 1013.0 |
| 20260507004538 | 54 | 190 | 0.0 | 0.0 | 0.00 | 0.52 | 0.00 | 60 | 1012.9 |
| 20260507003034 | 54 | 190 | 0.0 | 0.0 | 0.00 | 0.52 | 0.00 | 58 | 1012.8 |
| 20260507001538 | 55 | 190 | 0.0 | 0.0 | 0.00 | 0.52 | 0.00 | 56 | 1012.7 |
| 20260507000026 | 56 | 190 | 0.0 | 0.0 | 0.00 | 0.52 | 0.00 | 55 | 1012.6 |
| 20260506234525 | 56 | 190 | 0.0 | 0.0 | 0.00 | 0.53 | 0.00 | 55 | 1012.2 |
| 20260506233024 | 57 | 190 | 0.0 | 0.0 | 0.00 | 0.53 | 0.00 | 54 | 1012.2 |
| 20260506231552 | 57 | 190 | 0.0 | 0.0 | 0.00 | 0.53 | 0.00 | 53 | 1011.9 |
| 20260506230054 | 56 | 190 | 0.0 | 0.0 | 0.00 | 0.53 | 0.00 | 53 | 1011.9 |
| 20260506224600 | 57 | 190 | 0.0 | 0.0 | 0.00 | 0.53 | 0.00 | 52 | 1012.0 |
| 20260506223045 | 57 | 190 | 0.0 | 0.0 | 0.00 | 0.53 | 0.00 | 53 | 1012.3 |
| 20260506221543 | 57 | 190 | 0.0 | 0.0 | 0.00 | 0.53 | 0.00 | 54 | 1012.3 |
| 20260506220041 | 57 | 190 | 0.0 | 0.0 | 0.00 | 0.53 | 0.00 | 53 | 1012.5 |
| 20260506214508 | 57 | 190 | 0.0 | 0.0 | 0.00 | 0.61 | 0.53 | 52 | 1012.5 |
| 20260506213005 | 57 | 190 | 0.0 | 0.0 | 0.00 | 0.61 | 0.53 | 52 | 1012.3 |
| 20260506211556 | 58 | 190 | 0.0 | 0.0 | 0.00 | 0.61 | 0.53 | 52 | 1012.1 |
| 20260506210055 | 58 | 190 | 0.0 | 6.0 | 0.00 | 0.61 | 0.53 | 50 | 1012.0 |
| 20260506204556 | 58 | 190 | 0.0 | 0.0 | 0.00 | 0.79 | 0.53 | 49 | 1011.9 |
| 20260506203047 | 57 | 190 | 0.0 | 0.0 | 0.00 | 0.79 | 0.53 | 50 | 1012.0 |
| 20260506201537 | 57 | 190 | 0.0 | 0.0 | 0.00 | 0.79 | 0.53 | 50 | 1012.0 |
| 20260506200034 | 58 | 190 | 0.0 | 0.0 | 0.00 | 0.79 | 0.53 | 52 | 1012.1 |
| 20260506194529 | 59 | 190 | 0.0 | 0.0 | 0.00 | 0.80 | 0.53 | 51 | 1012.0 |
| 20260506193024 | 59 | 190 | 0.0 | 0.0 | 0.00 | 0.80 | 0.53 | 51 | 1011.8 |
| 20260506191518 | 59 | 190 | 0.0 | 0.0 | 0.00 | 0.80 | 0.53 | 51 | 1011.5 |
| 20260506190013 | 59 | 190 | 0.0 | 0.0 | 0.00 | 0.80 | 0.53 | 49 | 1011.6 |
| 20260506184509 | 59 | 190 | 0.0 | 3.0 | 0.00 | 0.80 | 0.53 | 47 | 1011.5 |
| 20260506183007 | 59 | 44 | 0.0 | 5.0 | 0.00 | 0.80 | 0.53 | 48 | 1011.4 |
| 20260506181534 | 58 | 13 | 0.0 | 0.0 | 0.00 | 0.80 | 0.53 | 50 | 1011.5 |
| 20260506180029 | 58 | 323 | 0.0 | 0.0 | 0.00 | 0.80 | 0.53 | 52 | 1011.8 |
| 20260506174519 | 57 | 82 | 0.0 | 0.0 | 0.00 | 0.80 | 0.53 | 55 | 1011.9 |
| 20260506173015 | 57 | 333 | 0.0 | 0.0 | 0.00 | 0.80 | 0.53 | 54 | 1012.0 |
| 20260506171513 | 57 | 297 | 0.0 | 0.0 | 0.00 | 0.80 | 0.53 | 56 | 1012.1 |
| 20260506170007 | 57 | 46 | 0.0 | 0.0 | 0.00 | 0.80 | 0.53 | 54 | 1012.2 |
| 20260506164503 | 56 | 77 | 0.0 | 0.0 | 0.00 | 0.80 | 0.53 | 56 | 1012.3 |
| 20260506163029 | 55 | 46 | 0.0 | 0.0 | 0.00 | 0.80 | 0.53 | 60 | 1012.1 |
| 20260506161524 | 54 | 72 | 0.0 | 0.0 | 0.00 | 0.80 | 0.53 | 59 | 1012.3 |
| 20260506160017 | 53 | 58 | 0.0 | 12.0 | 0.00 | 0.80 | 0.53 | 62 | 1012.1 |
| 20260506154513 | 53 | 6 | 0.0 | 0.0 | 0.00 | 0.80 | 0.53 | 63 | 1011.9 |
| 20260506153009 | 52 | 58 | 0.0 | 0.0 | 0.00 | 0.80 | 0.53 | 65 | 1012.2 |
| 20260506151505 | 52 | 343 | 0.0 | 0.0 | 0.00 | 0.80 | 0.53 | 66 | 1011.8 |
| 20260506150059 | 51 | 25 | 0.0 | 0.0 | 0.00 | 0.80 | 0.53 | 70 | 1011.9 |
| 20260506144601 | 51 | 328 | 0.0 | 0.0 | 0.00 | 0.80 | 0.53 | 73 | 1011.3 |
| 20260506143049 | 50 | 36 | 0.0 | 0.0 | 0.00 | 0.80 | 0.53 | 77 | 1011.0 |
| 20260506141545 | 49 | 20 | 0.0 | 0.0 | 0.00 | 0.80 | 0.53 | 78 | 1011.1 |
| 20260506140053 | 49 | 48 | 0.0 | 0.0 | 0.00 | 0.80 | 0.53 | 83 | 1011.0 |
| 20260506134537 | 48 | 314 | 0.0 | 0.0 | 0.00 | 0.80 | 0.53 | 84 | 1011.0 |
| 20260506133042 | 48 | 16 | 0.0 | 2.0 | 0.00 | 0.80 | 0.53 | 84 | 1010.9 |
| 20260506131530 | 47 | 345 | 0.0 | 0.0 | 0.00 | 0.80 | 0.53 | 89 | 1010.3 |
| 20260506130018 | 46 | 298 | 0.0 | 5.0 | 0.00 | 0.80 | 0.53 | 88 | 1010.3 |
| 20260506124514 | 46 | 345 | 0.0 | 5.0 | 0.00 | 0.80 | 0.53 | 89 | 1010.5 |
| 20260506123009 | 46 | 310 | 0.0 | 0.0 | 0.00 | 0.80 | 0.53 | 91 | 1010.6 |
| 20260506121506 | 45 | 339 | 0.0 | 0.0 | 0.00 | 0.80 | 0.53 | 92 | 1010.2 |
| 20260506120059 | 44 | 329 | 0.0 | 0.0 | 0.00 | 0.80 | 0.53 | 94 | 1009.8 |
| 20260506114600 | 44 | 294 | 0.0 | 0.0 | 0.00 | 0.80 | 0.53 | 94 | 1009.3 |